{"data":{"norad_id":52157,"epoch":"2026-09-20T22:16:48.530208Z","epoch_age_seconds":83848,"freshness":"FRESH","line1":"1 52157U 22033A   26263.92833947  .00000997  00000+0  12907-3 0  9990","line2":"2 52157  97.8331 341.2308 0004620 347.4324  12.6774 14.83027232241649","mean_motion":14.83027232,"eccentricity":0.000462,"inclination_deg":97.8331,"raan_deg":341.2308,"arg_perigee_deg":347.4324,"mean_anomaly_deg":12.6774,"bstar":0.00012907,"rev_number":24164,"period_min":97.098689014498,"perigee_km":616.55185258587,"apogee_km":623.01793241454,"semimajor_km":6997.9218925002,"source":"CELESTRAK","updated_at":"2026-09-21T09:00:08.492163Z"}}